Waarnemingen

Advertentie
Mijn weer
Hoorn-A, Nederland (6212): temperatuur & dauwpunt: 22.02.2017 06:00:00 - 28.02.2017 06:00:00 (CET)Hoorn-A, Nederland (6212): windsnelheid & windstoten: 22.02.2017 06:00:00 - 28.02.2017 06:00:00 (CET)Hoorn-A, Nederland (6212): windrichting: 22.02.2017 06:00:00 - 28.02.2017 06:00:00 (CET)Hoorn-A, Nederland (6212): luchtdruk: 22.02.2017 06:00:00 - 28.02.2017 06:00:00 (CET)Hoorn-A, Nederland (6212): zicht: 22.02.2017 06:00:00 - 28.02.2017 06:00:00 (CET)
Datum & Tijd tt [°C] td [°C] ff [km/u] ff [kn] fx [km/u] fx [kn] dd ppp [hPa] vv [km]
28.02.2017 06:00:00 5,6 2,0 44 24 54 29 - 982,9 10
28.02.2017 05:00:00 5,1 2,3 48 26 54 29 - 982,8 10
28.02.2017 04:00:00 5,5 3,2 44 24 61 33 - 982,6 10
28.02.2017 03:00:00 5,2 3,1 42 23 58 31 - 982,9 10
28.02.2017 02:00:00 6,5 1,6 48 26 54 29 - 983,3 10
28.02.2017 01:00:00 6,3 1,6 50 27 58 31 - 983,2 10
28.02.2017 00:00:00 6,6 1,8 65 35 65 35 - 983,3 10
27.02.2017 23:00:00 6,7 3,1 61 33 65 35 - 983,3 10
27.02.2017 22:00:00 6,7 2,2 67 36 68 37 - 983,2 10
27.02.2017 21:00:00 7,3 4,2 59 32 65 35 - 983,3 10
27.02.2017 20:00:00 7,1 4,6 68 37 72 39 - 983,4 10
27.02.2017 19:00:00 7,3 5,4 59 32 65 35 ZZW 983,3 7
27.02.2017 18:00:00 7,6 5,8 63 34 72 39 Z 983,8 10
27.02.2017 17:00:00 7,8 6,1 57 31 58 31 Z 984,7 10
27.02.2017 16:00:00 7,8 5,8 59 32 58 31 Z 986,4 10
27.02.2017 15:00:00 7,6 6,2 65 35 65 35 Z 988,3 10
27.02.2017 14:00:00 7,3 5,8 59 32 65 35 Z 989,9 8
27.02.2017 13:00:00 7,4 6,5 63 34 68 37 Z 991,7 8
27.02.2017 12:00:00 7,7 6,0 63 34 65 35 Z 993,0 10
27.02.2017 11:00:00 7,2 6,5 63 34 61 33 Z 994,2 3,2
27.02.2017 10:00:00 7,4 6,4 63 34 65 35 Z 995,3 4,7
27.02.2017 09:00:00 7,4 6,5 59 32 58 31 Z 996,0 7
27.02.2017 08:00:00 7,3 6,6 55 30 61 33 Z 997,4 4,4
27.02.2017 07:00:00 7,3 6,8 55 30 61 33 Z 998,2 6
27.02.2017 06:00:00 7,4 7,2 61 33 61 33 - 998,7 4,0
27.02.2017 05:00:00 7,5 7,2 65 35 65 35 - 999,4 4,8
27.02.2017 04:00:00 7,9 7,2 58 31 65 35 - 1000,0 8
27.02.2017 03:00:00 8,1 6,3 63 34 65 35 - 1000,6 10
27.02.2017 02:00:00 8,4 6,6 67 36 65 35 - 1001,3 10
27.02.2017 01:00:00 8,6 6,4 63 34 65 35 - 1001,6 10
27.02.2017 00:00:00 8,6 6,2 57 31 58 31 - 1002,2 10
26.02.2017 23:00:00 8,7 6,3 59 32 61 33 - 1002,5 10
26.02.2017 22:00:00 8,1 6,4 57 31 65 35 - 1003,1 10
26.02.2017 21:00:00 8,7 6,5 65 35 65 35 - 1003,0 10
26.02.2017 20:00:00 8,0 7,0 68 37 68 37 - 1003,4 10
26.02.2017 19:00:00 8,0 6,9 63 34 65 35 - 1003,3 10
26.02.2017 18:00:00 8,0 6,8 63 34 61 33 - 1003,4 10
26.02.2017 17:00:00 7,5 7,5 59 32 58 31 - 1004,3 0,4
26.02.2017 16:00:00 7,1 7,1 52 28 50 27 - 1004,7 0,2
26.02.2017 15:00:00 7,2 7,2 52 28 50 27 - 1005,3 0,2
26.02.2017 14:00:00 7,4 7,4 54 29 54 29 - 1006,0 0,3
26.02.2017 13:00:00 7,4 7,3 48 26 50 27 - 1006,3 2,5
26.02.2017 12:00:00 7,8 7,2 50 27 50 27 - 1006,7 9
26.02.2017 11:00:00 7,8 7,2 52 28 50 27 - 1006,4 9
26.02.2017 10:00:00 7,9 7,1 54 29 54 29 - 1006,5 9
26.02.2017 09:00:00 7,7 7,0 46 25 50 27 - 1006,2 8
26.02.2017 08:00:00 7,8 6,8 52 28 50 27 - 1005,8 8
26.02.2017 07:00:00 7,7 6,6 57 31 58 31 - 1005,5 9
26.02.2017 06:00:00 7,9 6,5 63 34 65 35 - 1005,6 10
26.02.2017 05:00:00 7,9 6,5 61 33 61 33 - 1005,5 10
26.02.2017 04:00:00 7,7 6,4 59 32 58 31 - 1006,1 9
26.02.2017 03:00:00 7,6 6,3 57 31 58 31 - 1006,8 10
26.02.2017 02:00:00 7,4 6,7 55 30 58 31 - 1007,3 7
26.02.2017 01:00:00 7,5 6,6 61 33 61 33 - 1007,6 6
26.02.2017 00:00:00 7,3 6,6 57 31 58 31 - 1008,0 5
25.02.2017 23:00:00 7,4 6,5 59 32 61 33 - 1008,5 5
25.02.2017 22:00:00 7,5 6,5 61 33 61 33 - 1008,7 7
25.02.2017 21:00:00 7,5 6,3 61 33 68 37 - 1009,3 6
25.02.2017 20:00:00 7,5 6,1 70 38 68 37 - 1008,5 8
25.02.2017 19:00:00 7,4 6,2 68 37 68 37 - 1009,3 8
25.02.2017 18:00:00 7,4 6,0 70 38 68 37 - 1009,4 8
25.02.2017 17:00:00 7,4 5,7 63 34 65 35 - 1009,7 10
25.02.2017 16:00:00 6,7 4,5 68 37 68 37 - 1010,2 10
25.02.2017 15:00:00 6,6 4,2 67 36 68 37 - 1011,0 10
25.02.2017 14:00:00 6,5 4,3 65 35 65 35 - 1011,7 10
25.02.2017 13:00:00 6,4 4,6 61 33 61 33 - 1012,8 10
25.02.2017 12:00:00 6,3 4,5 61 33 61 33 - 1013,0 10
25.02.2017 11:00:00 6,1 4,6 57 31 58 31 - 1013,8 9
25.02.2017 10:00:00 6,2 5,1 55 30 54 29 - 1014,4 -
25.02.2017 09:00:00 6,3 5,2 52 28 54 29 - 1014,6 -
25.02.2017 08:00:00 6,5 5,1 46 25 47 25 - 1014,9 10
25.02.2017 07:00:00 6,6 5,0 44 24 43 23 - 1015,4 10
25.02.2017 06:00:00 6,6 4,6 42 23 43 23 - 1015,9 10
25.02.2017 05:00:00 6,4 4,2 44 24 43 23 - 1016,3 10
25.02.2017 04:00:00 6,3 4,1 42 23 43 23 - 1016,5 10
25.02.2017 03:00:00 6,1 3,2 41 22 40 21 - 1017,0 10
25.02.2017 02:00:00 6,0 2,3 35 19 32 18 - 1018,0 10
25.02.2017 01:00:00 5,9 2,0 34 18 32 18 - 1018,3 10
25.02.2017 00:00:00 5,9 1,1 29 16 29 16 - 1018,2 10
24.02.2017 23:00:00 5,9 0,8 24 13 25 14 - 1018,5 10
24.02.2017 22:00:00 5,7 2,4 16 9 22 12 - 1018,4 10
24.02.2017 21:00:00 5,7 2,4 21 11 25 14 W 1018,2 10
24.02.2017 20:00:00 5,7 2,6 24 13 22 12 WNW 1018,1 10
24.02.2017 19:00:00 5,7 2,4 24 13 25 14 WNW 1017,5 10
24.02.2017 18:00:00 6,0 2,9 24 13 25 14 WNW 1017,1 10
24.02.2017 17:00:00 5,9 3,0 24 13 32 18 WNW 1016,4 10
24.02.2017 16:00:00 5,8 1,2 29 16 32 18 WNW 1015,5 10
24.02.2017 15:00:00 5,8 2,9 29 16 32 18 WNW 1015,0 10
24.02.2017 14:00:00 5,8 1,3 29 16 29 16 WNW 1014,4 10
24.02.2017 13:00:00 5,6 2,6 31 17 32 18 WNW 1013,7 10
24.02.2017 12:00:00 5,6 2,6 35 19 32 18 WNW 1013,3 10
24.02.2017 11:00:00 6,0 0,5 26 14 29 16 NW 1012,5 10
24.02.2017 10:00:00 5,9 -0,4 29 16 32 18 NW 1011,4 10
24.02.2017 09:00:00 5,8 0,6 37 20 36 19 NW 1010,4 10
24.02.2017 08:00:00 5,8 0,2 39 21 40 21 NW 1009,3 10
24.02.2017 07:00:00 5,8 -0,2 41 22 40 21 NW 1008,0 10
24.02.2017 06:00:00 5,7 -0,4 46 25 50 27 NW 1007,0 10
24.02.2017 05:00:00 5,0 0,3 44 24 58 31 NW 1005,6 7
24.02.2017 04:00:00 5,7 1,5 48 26 58 31 NW 1004,1 -
24.02.2017 03:00:00 5,4 0,2 57 31 65 35 NW 1002,9 10
24.02.2017 02:00:00 5,7 0,8 59 32 76 41 NW 1000,8 10
24.02.2017 01:00:00 5,4 0,8 76 41 76 41 NW 999,2 8
24.02.2017 00:00:00 5,0 0,7 68 37 76 41 NW 997,2 -
23.02.2017 23:00:00 5,5 1,7 81 44 94 51 NNW 994,4 9
23.02.2017 22:00:00 5,0 3,4 94 51 101 54 NNW 989,7 5
23.02.2017 21:00:00 6,2 5,1 67 36 72 39 WNW 983,8 10
23.02.2017 20:00:00 6,0 5,1 65 35 86 47 - 983,2 7
23.02.2017 19:00:00 6,6 3,9 78 42 90 49 W 982,8 8
23.02.2017 18:00:00 6,6 3,6 96 52 101 54 W 981,3 5
23.02.2017 17:00:00 6,0 4,9 96 52 101 54 - 979,5 3,5
23.02.2017 16:00:00 7,8 3,7 80 43 90 49 - 980,1 7
23.02.2017 15:00:00 8,2 3,8 76 41 83 45 - 981,1 10
23.02.2017 14:00:00 8,5 4,5 76 41 83 45 - 982,7 10
23.02.2017 13:00:00 8,4 5,2 80 43 83 45 - 983,9 8
23.02.2017 12:00:00 7,8 7,1 76 41 76 41 - 985,5 6
23.02.2017 11:00:00 7,6 7,0 78 42 76 41 - 987,7 9
23.02.2017 10:00:00 7,6 7,0 70 38 72 39 - 990,2 8
23.02.2017 09:00:00 7,8 7,4 63 34 65 35 - 992,2 8
23.02.2017 08:00:00 8,0 7,5 59 32 61 33 - 993,7 8
23.02.2017 07:00:00 7,7 7,4 52 28 58 31 - 995,1 2,8
23.02.2017 06:00:00 5,8 5,7 28 15 25 14 Z 997,0 2,4
23.02.2017 05:00:00 6,1 5,7 26 14 25 14 - 998,4 10
23.02.2017 04:00:00 6,5 5,9 22 12 22 12 - 1000,0 10
23.02.2017 03:00:00 7,1 5,3 28 15 32 18 W 1001,4 10
23.02.2017 02:00:00 7,5 5,3 34 18 36 19 W 1002,0 10
23.02.2017 01:00:00 7,2 5,8 31 17 32 18 - 1002,7 10
23.02.2017 00:00:00 7,3 5,4 31 17 29 16 - 1003,1 10
22.02.2017 23:00:00 7,4 5,5 29 16 36 19 - 1003,3 10
22.02.2017 22:00:00 7,5 5,8 37 20 36 19 - 1003,4 10
22.02.2017 21:00:00 7,6 5,7 37 20 40 21 - 1003,1 10
22.02.2017 20:00:00 7,8 6,0 41 22 43 23 - 1003,2 10
22.02.2017 19:00:00 8,4 5,7 44 24 47 25 - 1002,9 10
22.02.2017 18:00:00 8,1 6,5 48 26 47 25 - 1002,6 10
22.02.2017 17:00:00 7,8 7,2 44 24 43 23 - 1002,7 10
22.02.2017 16:00:00 7,4 6,9 44 24 43 23 - 1002,8 10
22.02.2017 15:00:00 7,5 5,8 44 24 43 23 - 1002,8 10
22.02.2017 14:00:00 7,1 6,2 42 23 40 21 - 1003,0 10
22.02.2017 13:00:00 7,3 6,5 39 21 43 23 - 1003,3 9
22.02.2017 12:00:00 7,6 5,6 42 23 50 27 - 1003,7 10
22.02.2017 11:00:00 8,2 5,7 48 26 54 29 - 1003,2 10
22.02.2017 10:00:00 8,5 6,0 52 28 54 29 - 1002,8 10
22.02.2017 09:00:00 8,4 8,0 48 26 61 33 - 1002,6 2,4
22.02.2017 08:00:00 8,7 7,4 65 35 65 35 - 1002,0 10
22.02.2017 07:00:00 8,9 7,5 68 37 68 37 - 1001,8 10
22.02.2017 06:00:00 8,9 7,3 63 34 65 35 - 1001,9 10

tt = temperatuur
td = dauwpunt
ff = windsnelheid
fx = windstoten
dd = windrichting
ppp = luchtdruk
vv = zicht

Weerstations in de omgeving